Other Public Products
Issued by NWS Grand Forks, ND

Home | Current Version | Previous Version | Text Only | Print | Product List | Glossary On
Versions: 1 2 3 4 5 6 7 8 9 10 11 12 13 14 15 16 17 18 19 20 21 22 23 24 25 26 27 28 29 30 31 32 33 34 35 36 37 38 39 40 41 42 43 44 45 46 47 48 49 50
595
FPUS83 KFGF 210610
OPUFGF
PRAIRIE TO PINES WEATHER ROUNDUP
NATIONAL WEATHER SERVICE EASTERN NORTH DAKOTA/GRAND FORKS ND
1200 AM CST TUE FEB 21 2017

 **SATELLITE DATA USED TO AUGMENT SKY COVER AT AUTOMATED STATIONS**
 *****  WEATHER ACROSS EASTERN NORTH DAKOTA  *****

CITY           SKY/WX    TMP DP  RH WIND       PRES   REMARKS
GRAND FORKS    FAIR      31  27  85 SE7       29.73S WCI  24
6HR MIN TEMP:  30; 6HR MAX TEMP:  36;

GRAND FORKS AF FAIR      30  30 100 CALM      29.73R
GRAND CITY NWS NOT AVBL
BUXTON         NOT AVBL
DEVILS LAKE    FAIR      29  28  96 CALM      29.73R FOG
6HR MIN TEMP:  29; 6HR MAX TEMP:  33;

FARGO          FAIR      32  31  96 SW7       29.76F
6HR MIN TEMP:  31; 6HR MAX TEMP:  38;

WAHPETON ARPT  FAIR      34  32  93 SW3       29.80F
$$

 *****  WEATHER ACROSS CENTRAL AND WESTERN NORTH DAKOTA  *****

CITY           SKY/WX    TMP DP  RH WIND       PRES   REMARKS
JAMESTOWN      FAIR      30  29  96 S3        29.75S
6HR MIN TEMP:  29; 6HR MAX TEMP:  38;

BISMARCK       CLOUDY    36  33  89 SE7       29.74R
6HR MIN TEMP:  32; 6HR MAX TEMP:  50;

MINOT          CLOUDY    37  30  75 S6        29.67F
6HR MIN TEMP:  36; 6HR MAX TEMP:  45;

MINOT AFB      FAIR      35  30  82 CALM      29.66F
6HR MIN TEMP:  31; 6HR MAX TEMP:  37;

GARRISON         N/A     35  31  85 E3        29.70R
6HR MIN TEMP:  31; 6HR MAX TEMP:  41;

WILLISTON      CLOUDY    37  31  78 S3        29.64F
6HR MIN TEMP:  31; 6HR MAX TEMP:  47; 6HR PCP: TRACE;

DICKINSON      FAIR      40  27  59 S14       29.63F
6HR MIN TEMP:  34; 6HR MAX TEMP:  45;

HETTINGER      FAIR      42  27  55 CALM      29.69F
6HR MIN TEMP:  34; 6HR MAX TEMP:  51;

$$

 *****  OTHER OBSERVATIONS NORTHEAST NORTH DAKOTA  *****

CITY           SKY/WX    TMP DP  RH WIND       PRES   REMARKS
WALHALLA       NOT AVBL
LANGDON        NOT AVBL
CAVALIER         N/A     27  27 100 SW3       29.71F FOG
GRAFTON        FAIR      28  28 100 CALM      29.73F FOG
CANDO          NOT AVBL
FORT TOTTEN      N/A     33  33 100 CALM      29.95S
ROLLA          FAIR      27  27 100 SW8       29.69S WCI  18
RUGBY            N/A     28  28 100 CALM      29.70S
 ***** THE ABOVE OBSERVATIONS ARE NON NWS ARE NOT QUALITY
        CONTROLLED AND MAY MIS-REPORT RAIN FOR SNOW...
$$

 *****  OTHER OBSERVATIONS SOUTHEAST NORTH DAKOTA *****

CITY           SKY/WX    TMP DP  RH WIND       PRES   REMARKS
COOPERSTOWN    FAIR      32  32 100 SW9       29.74S WCI  24
VALLEY CITY    FAIR      30  30 100 S5        29.78S
OAKES          NOT AVBL
GWINNER        FAIR      34  34 100 SW9       29.79S
SHEYENNE NWR     N/A     30  29  98 SW6       29.95S WCI  24
BUFFALO        NOT AVBL
WYNDMERE       NOT AVBL
 ***** THE ABOVE OBSERVATIONS ARE NON NWS ARE NOT QUALITY
       CONTROLLED AND MAY MIS-REPORT RAIN FOR SNOW...
$$

  *****  WEATHER ACROSS NORTHERN MINNESOTA  *****

CITY           SKY/WX    TMP DP  RH WIND       PRES   REMARKS
FLAG ISLAND    CLOUDY    34  30  86 W14G23    29.63R WCI  24
WARROAD        CLOUDY    32  28  86 W10G18    29.68R WCI  24
ROSEAU         CLOUDY    34  28  80 W12G18    29.69R HAZE
HALLOCK        CLOUDY    34  32  93 W3        29.71F FOG
THF RVR FALLS  FOG       32  31  96 W10       29.73S VSB 3/4 WCI  24
6HR MIN TEMP:  32; 6HR MAX TEMP:  34; 6HR PCP: TRACE;

HALSTAD          N/A     33  32  97 S8          N/A
FOSSTON        FOG       30  30 100 SW9       29.75S VSB 1/4 WCI  22
BAUDETTE       CLOUDY    34  30  85 W9G20     29.67R
6HR MIN TEMP:  34; 6HR MAX TEMP:  41; 6HR PCP:  0.02;

WASKISH        CLOUDY    34  34 100 W10       29.71R
CROOKSTON      FAIR      32  32 100 S3        29.75S FOG
$$
  *****  WEATHER ACROSS CENTRAL AND WEST MINNESOTA  *****

CITY           SKY/WX    TMP DP  RH WIND       PRES   REMARKS
BEMIDJI        CLOUDY    33  33  97 W13G18    29.73R WCI  24
PARK RAPIDS    CLOUDY    34  31  88 W7        29.75R FOG
6HR MIN TEMP:  34; 6HR MAX TEMP:  39; 6HR PCP:  0.02;

WADENA         CLOUDY    34  34 100 W9        29.79R FOG
DETROIT LAKES  FAIR      34  34 100 SW3       29.78S FOG
MOORHEAD       FAIR      34  32  93 S5        29.78F FOG
FERGUS FALLS   FOG       32  32 100 S3        29.83F VSB 1/2
ELBOW LAKE     FAIR      32  32 100 CALM      29.81F FOG
MORRIS MN      FAIR      34  34 100 SW3       29.82S FOG
STAPLES        CLOUDY    34  34 100 W7        29.79R FOG
WHEATON        FAIR      34  30  86 SW3       29.83F
$$
  *****  WEATHER ELSEWHERE ACROSS MINNESOTA  *****

CITY           SKY/WX    TMP DP  RH WIND       PRES   REMARKS
DULUTH         CLOUDY    39  38  96 W17G30    29.65R
6HR MIN TEMP:  39; 6HR MAX TEMP:  45; 6HR PCP:  0.24;

INTRNTL FALLS  CLOUDY    35  31  85 W17G23    29.64R WCI  25
6HR MIN TEMP:  35; 6HR MAX TEMP:  43; 6HR PCP:  0.11;

ELY            CLOUDY    37  37 100 W13       29.60R
CLOQUET        CLOUDY    37  37 100 W9G20     29.69R
BRAINERD       CLOUDY    35  34  96 W8        29.78R
6HR MIN TEMP:  35; 6HR MAX TEMP:  47; 6HR PCP:  0.05;

HIBBING        CLOUDY    35  35 100 W9G20     29.67R
6HR MIN TEMP:  35; 6HR MAX TEMP:  41; 6HR PCP:  0.26;

ALEXANDRIA     FAIR      34  34 100 W8        29.82R FOG
6HR MIN TEMP:  34; 6HR MAX TEMP:  38; 6HR PCP: TRACE;

SAINT CLOUD    CLOUDY    37  36  96 W12       29.81R
6HR MIN TEMP:  37; 6HR MAX TEMP:  50; 6HR PCP:  0.01;

MINNEAPOLIS    CLOUDY    41  37  86 W14       29.83R
6HR MIN TEMP:  41; 6HR MAX TEMP:  55;

$$

  *****  WEATHER ACROSS SOUTH DAKOTA  *****

CITY           SKY/WX    TMP DP  RH WIND       PRES   REMARKS
SIOUX FALLS    FAIR      32  32 100 CALM      29.90S
6HR MIN TEMP:  32; 6HR MAX TEMP:  50;

BROOKINGS      FAIR      30  30 100 SE5       29.87F FOG
WATERTOWN      FAIR      31  30  96 SE3       29.83F FOG
6HR MIN TEMP:  29; 6HR MAX TEMP:  44;

HURON          FAIR      36  36 100 S8        29.85S
6HR MIN TEMP:  33; 6HR MAX TEMP:  50;

SISSETON         N/A     35  32  88 SE3       29.79F
ABERDEEN       FAIR      33  30  88 S7        29.81S
6HR MIN TEMP:  29; 6HR MAX TEMP:  45;

MITCHELL       FAIR      36  33  89 S8        29.88F
PIERRE         FAIR      39  29  67 SE13      29.78F
6HR MIN TEMP:  34; 6HR MAX TEMP:  53;

MOBRIDGE       FAIR      38  30  73 SE9       29.73F
RAPID CITY     FAIR      50  31  48 SE13      29.77S
6HR MIN TEMP:  46; 6HR MAX TEMP:  61;

$$

  *****  SOME WEATHER IN NEARBY STATES *****

CITY           SKY/WX    TMP DP  RH WIND       PRES   REMARKS
GLASGOW MT     FAIR      39  35  86 W8        29.61R
6HR MIN TEMP:  38; 6HR MAX TEMP:  47; 6HR PCP:  0.01;

GREAT FALLS MT FAIR      39  31  72 S15       29.63R
6HR MIN TEMP:  33; 6HR MAX TEMP:  46;

CHEYENNE WY    FAIR      39  15  37 SW7       30.00R
6HR MIN TEMP:  38; 6HR MAX TEMP:  52;

SCOTTSBLUFF NE FAIR      47  21  35 CALM      29.94R
6HR MIN TEMP:  39; 6HR MAX TEMP:  61;

OMAHA NE       FAIR      39  35  86 CALM      29.95R
6HR MIN TEMP:  38; 6HR MAX TEMP:  56;

DES MOINES IA  FAIR      52  45  77 NW6       29.91S
6HR MIN TEMP:  52; 6HR MAX TEMP:  61; 6HR PCP: TRACE;

DAVENPORT IA   MOCLDY    56  55  97 S9        29.90R
6HR MIN TEMP:  56; 6HR MAX TEMP:  68; 6HR PCP:  0.35;

CHICAGO IL     CLOUDY    60  46  59 S13       29.91R
6HR MIN TEMP:  60; 6HR MAX TEMP:  65;

EAU CLAIRE WI  CLOUDY    48  47  96 W16G26    29.75R FOG
6HR MIN TEMP:  48; 6HR MAX TEMP:  54; 6HR PCP:  0.06;

LA CROSSE WI   CLOUDY    52  47  83 CALM      29.81R
6HR MIN TEMP:  52; 6HR MAX TEMP:  58; 6HR PCP:  0.11;

$$

  *****  SOME NATIONAL WEATHER *****

CITY           SKY/WX    TMP DP  RH WIND       PRES   REMARKS
LA GUARDIA NY  FAIR      40  12  32 NE7       30.37R
6HR MIN TEMP:  40; 6HR MAX TEMP:  48;



USA.gov is the U.S. government's official web portal to all federal, state and local government web resources and services.